Stündliche Wetter Kyzylkaynar

Heute, 16 Mai, Sonntag

Zeit Temperatur Niederschläge Wind Luftdruck Luftfeuchtigkeit
00:00 +12°C° 0 mm 3 m/S 701 mmHg 48%
01:00 +11°C° 0 mm 3 m/S 701 mmHg 48%
02:00 +11°C° 0 mm 3 m/S 701 mmHg 48%
03:00 +10°C° 0 mm 3 m/S 701 mmHg 49%
04:00 +10°C° 0 mm 3 m/S 701 mmHg 49%
05:00 +9°C° 0 mm 3 m/S 701 mmHg 50%
06:00 +12°C° 0 mm 3 m/S 701 mmHg 45%
07:00 +14°C° 0 mm 3 m/S 702 mmHg 41%
08:00 +17°C° 0 mm 3 m/S 702 mmHg 37%
09:00 +19°C° 0 mm 4 m/S 702 mmHg 33%
10:00 +20°C° 0 mm 4 m/S 702 mmHg 29%
11:00 +22°C° 0 mm 5 m/S 702 mmHg 26%
12:00 +23°C° 0 mm 5 m/S 702 mmHg 25%
13:00 +24°C° 0 mm 6 m/S 702 mmHg 24%
14:00 +24°C° 0 mm 6 m/S 702 mmHg 24%
15:00 +24°C° 0 mm 6 m/S 702 mmHg 25%
16:00 +24°C° 0 mm 6 m/S 702 mmHg 26%
17:00 +23°C° 0 mm 7 m/S 702 mmHg 28%
18:00 +21°C° 0 mm 6 m/S 702 mmHg 33%
19:00 +19°C° 0 mm 5 m/S 701 mmHg 37%
20:00 +17°C° 0 mm 4 m/S 701 mmHg 42%
21:00 +15°C° 0 mm 4 m/S 701 mmHg 42%
22:00 +16°C° 0 mm 3 m/S 701 mmHg 42%
23:00 +14°C° 0 mm 3 m/S 701 mmHg 41%

Morgen, 17 Mai, Montag

Zeit Temperatur Niederschläge Wind Luftdruck Luftfeuchtigkeit
00:00 +13°C° 0 mm 3 m/S 701 mmHg 41%
01:00 +14°C° 0 mm 2 m/S 701 mmHg 42%
02:00 +13°C° 0 mm 2 m/S 700 mmHg 42%
03:00 +13°C° 0 mm 2 m/S 701 mmHg 43%
04:00 +12°C° 0 mm 2 m/S 701 mmHg 44%
05:00 +12°C° 0 mm 2 m/S 701 mmHg 44%
06:00 +14°C° 0 mm 2 m/S 701 mmHg 39%
07:00 +17°C° 0 mm 2 m/S 702 mmHg 34%
08:00 +20°C° 0 mm 2 m/S 702 mmHg 29%
09:00 +21°C° 0 mm 3 m/S 702 mmHg 27%
10:00 +24°C° 0 mm 3 m/S 702 mmHg 25%
11:00 +26°C° 0 mm 4 m/S 702 mmHg 22%
12:00 +27°C° 0 mm 5 m/S 702 mmHg 22%
13:00 +27°C° 0 mm 5 m/S 702 mmHg 21%
14:00 +28°C° 0 mm 5 m/S 702 mmHg 20%
15:00 +28°C° 0 mm 5 m/S 702 mmHg 21%
16:00 +28°C° 0 mm 4 m/S 702 mmHg 21%
17:00 +27°C° 0 mm 4 m/S 701 mmHg 22%
18:00 +25°C° 0 mm 4 m/S 701 mmHg 28%
19:00 +21°C° 0 mm 3 m/S 701 mmHg 34%
20:00 +19°C° 0 mm 3 m/S 700 mmHg 40%
21:00 +18°C° 0 mm 3 m/S 700 mmHg 40%
22:00 +18°C° 0 mm 3 m/S 700 mmHg 41%
23:00 +17°C° 0 mm 3 m/S 699 mmHg 41%

übermorgen, 18 Mai, Dienstag

Zeit Temperatur Niederschläge Wind Luftdruck Luftfeuchtigkeit
00:00 +17°C° 0 mm 2 m/S 699 mmHg 43%
01:00 +16°C° 0 mm 2 m/S 699 mmHg 44%
02:00 +15°C° 0 mm 1 m/S 698 mmHg 46%
03:00 +15°C° 0 mm 1 m/S 698 mmHg 47%
04:00 +15°C° 0 mm 1 m/S 698 mmHg 48%
05:00 +14°C° 0 mm 1 m/S 698 mmHg 49%
06:00 +18°C° 0 mm 1 m/S 699 mmHg 43%
07:00 +21°C° 0 mm 1 m/S 699 mmHg 37%
08:00 +24°C° 0 mm 1 m/S 700 mmHg 31%
09:00 +25°C° 0 mm 2 m/S 700 mmHg 29%
10:00 +27°C° 0 mm 3 m/S 700 mmHg 27%
11:00 +28°C° 0 mm 3 m/S 699 mmHg 25%
12:00 +29°C° 0 mm 3 m/S 699 mmHg 23%
13:00 +30°C° 0 mm 3 m/S 699 mmHg 22%
14:00 +30°C° 0 mm 3 m/S 699 mmHg 21%
15:00 +30°C° 0 mm 3 m/S 699 mmHg 22%
16:00 +29°C° 0 mm 3 m/S 698 mmHg 23%
17:00 +29°C° 0 mm 2 m/S 698 mmHg 24%
18:00 +27°C° 0 mm 3 m/S 698 mmHg 30%
19:00 +23°C° 0 mm 4 m/S 698 mmHg 35%
20:00 +21°C° 0 mm 5 m/S 698 mmHg 40%
21:00 +21°C° 0 mm 5 m/S 698 mmHg 40%
22:00 +20°C° 0 mm 5 m/S 698 mmHg 41%
23:00 +20°C° 0 mm 5 m/S 697 mmHg 41%

19 Mai, Mittwoch

Zeit Temperatur Niederschläge Wind Luftdruck Luftfeuchtigkeit
00:00 +19°C° 0 mm 4 m/S 697 mmHg 40%
01:00 +19°C° 0 mm 4 m/S 697 mmHg 39%
02:00 +19°C° 0 mm 4 m/S 696 mmHg 38%
03:00 +19°C° 0 mm 3 m/S 696 mmHg 37%
04:00 +18°C° 0 mm 3 m/S 696 mmHg 37%
05:00 +18°C° 0 mm 3 m/S 696 mmHg 37%
06:00 +21°C° 0 mm 3 m/S 696 mmHg 33%
07:00 +24°C° 0 mm 2 m/S 697 mmHg 29%
08:00 +27°C° 0 mm 2 m/S 697 mmHg 25%
09:00 +29°C° 0 mm 2 m/S 697 mmHg 22%
10:00 +30°C° 0 mm 2 m/S 697 mmHg 19%
11:00 +31°C° 0 mm 2 m/S 697 mmHg 16%
12:00 +31°C° 0 mm 3 m/S 697 mmHg 17%
13:00 +32°C° 0 mm 4 m/S 697 mmHg 19%
14:00 +30°C° 0 mm 6 m/S 696 mmHg 21%
15:00 +28°C° 0.2 mm 6 m/S 697 mmHg 30%
16:00 +24°C° 0.2 mm 7 m/S 697 mmHg 39%
17:00 +21°C° 0.2 mm 8 m/S 697 mmHg 48%
18:00 +21°C° 0.1 mm 8 m/S 697 mmHg 49%
19:00 +20°C° 0.1 mm 8 m/S 697 mmHg 49%
20:00 +18°C° 0.1 mm 7 m/S 697 mmHg 50%
21:00 +20°C° 0 mm 7 m/S 697 mmHg 47%
22:00 +20°C° 0 mm 6 m/S 697 mmHg 44%
23:00 +20°C° 0 mm 6 m/S 697 mmHg 41%

20 Mai, Donnerstag

Zeit Temperatur Niederschläge Wind Luftdruck Luftfeuchtigkeit
00:00 +19°C° 0 mm 5 m/S 697 mmHg 40%
01:00 +19°C° 0 mm 5 m/S 696 mmHg 38%
02:00 +19°C° 0 mm 4 m/S 696 mmHg 37%
03:00 +18°C° 0 mm 4 m/S 696 mmHg 36%
04:00 +18°C° 0 mm 3 m/S 696 mmHg 36%
05:00 +18°C° 0 mm 3 m/S 696 mmHg 35%
06:00 +20°C° 0 mm 2 m/S 697 mmHg 33%
07:00 +23°C° 0 mm 2 m/S 698 mmHg 31%
08:00 +25°C° 0 mm 2 m/S 698 mmHg 29%
09:00 +27°C° 0 mm 2 m/S 699 mmHg 28%
10:00 +28°C° 0 mm 2 m/S 699 mmHg 27%
11:00 +29°C° 0 mm 3 m/S 699 mmHg 26%
12:00 +30°C° 0 mm 3 m/S 699 mmHg 24%
13:00 +32°C° 0 mm 4 m/S 699 mmHg 22%
14:00 +32°C° 0 mm 4 m/S 699 mmHg 21%
15:00 +30°C° 0.1 mm 4 m/S 699 mmHg 26%
16:00 +28°C° 0.1 mm 4 m/S 699 mmHg 31%
17:00 +27°C° 0.1 mm 4 m/S 699 mmHg 36%
18:00 +23°C° 0.4 mm 4 m/S 699 mmHg 44%
19:00 +21°C° 0.4 mm 3 m/S 699 mmHg 52%
20:00 +19°C° 0.4 mm 3 m/S 699 mmHg 60%
21:00 +19°C° 0.1 mm 3 m/S 699 mmHg 63%
22:00 +18°C° 0.1 mm 3 m/S 699 mmHg 65%
23:00 +17°C° 0.1 mm 2 m/S 699 mmHg 67%

21 Mai, Freitag

Zeit Temperatur Niederschläge Wind Luftdruck Luftfeuchtigkeit
00:00 +17°C° 0 mm 2 m/S 699 mmHg 69%
01:00 +16°C° 0 mm 2 m/S 698 mmHg 72%
02:00 +15°C° 0 mm 2 m/S 698 mmHg 75%
03:00 +14°C° 0 mm 2 m/S 698 mmHg 77%
04:00 +14°C° 0 mm 2 m/S 698 mmHg 79%
05:00 +13°C° 0 mm 2 m/S 699 mmHg 82%
06:00 +15°C° 0 mm 2 m/S 699 mmHg 74%
07:00 +17°C° 0 mm 2 m/S 700 mmHg 67%
08:00 +18°C° 0 mm 3 m/S 700 mmHg 60%
09:00 +20°C° 0 mm 3 m/S 700 mmHg 54%
10:00 +22°C° 0 mm 4 m/S 700 mmHg 48%
11:00 +25°C° 0 mm 5 m/S 700 mmHg 42%
12:00 +26°C° 0 mm 5 m/S 700 mmHg 39%
13:00 +27°C° 0 mm 5 m/S 700 mmHg 37%
14:00 +28°C° 0 mm 5 m/S 700 mmHg 34%
15:00 +28°C° 0 mm 5 m/S 699 mmHg 34%
16:00 +27°C° 0 mm 5 m/S 699 mmHg 34%
17:00 +27°C° 0 mm 5 m/S 699 mmHg 35%
18:00 +25°C° 0 mm 5 m/S 699 mmHg 38%
19:00 +22°C° 0 mm 5 m/S 699 mmHg 41%
20:00 +20°C° 0 mm 5 m/S 699 mmHg 44%
21:00 +19°C° 0 mm 5 m/S 699 mmHg 44%
22:00 +18°C° 0 mm 4 m/S 699 mmHg 44%
23:00 +17°C° 0 mm 4 m/S 699 mmHg 45%
Mehr zeigen

Wir brauchen deine Erlaubnis

Meteoprog und unser Service Anbieter werden persönliche Daten aufbewahren, so wie Cookies, Geräte Bezeichnung oder ähnliche Technologien von deinem Gerät und Prozess, so wie Persönliche Daten Inhalte und Werbungen, genauso wie social Media und den Verkehr zu analysieren.

  • Aufbewahrung und/oder Zugang zu deiner Geräte Informationen.

    Cookies, Geräte Bezeichnung oder andere Informationen, können aufbewahrt oder Zugang zu deinem Gerät erhalten, für den Grund, der oben angegeben wird.

  • Personalisierte Werbung und Inhalte, Messungen, Einblick in das Publikum und Produkt Entwicklung.

    Werbungen und Inhalte können personalisiert werden, basierend auf ein Profil. Mehr Daten können besser personalisierte Werbungen und Inhalte hinzufügen. Werbung und Inhalte können gezeigt und gemessen werden. Einblicke über das Publikum, welche die Werbung gesehen haben und den Inhalt, können abgeleitet werden. So wie Daten können genutzt werden, um es zu verbessern oder die Benutzer Erfahrung zu verbessern das System und die Software.

Wenn du “Ich stimme zu” klickst, erlaubst du uns, die Cookies zu benutzen die Geräte Bezeichnung, den Web oder ähnliche Technologien zu benutzen. Deine Settings, können in deinem Gerät bei deinem Browser geändert werden.

Für den bestimmten Zweck, berechtigten Interessen beruhen darauf, mehr als auf den Inhalt. Du kannst mehr darüber in unseren Privaten und Cookie Politik lesen.